/EX
1
0
The identification of the 64 satellites launched by SpaceX SSO-A mission on
December 3, 2018 STILL continues. The spacing between unidentified
satellites
has grown enough for positive identification of several additional cubesats.
Here are some changes to the AMSAT-NA TLE distribution for this week.
(1) The following satellite has been identified and remains in this week's
TLE Distribution:
MinXSS 2 is CAT ID 43758 per Space-Track. (MinXSS 2 is not transmitting)
(2) The following additional objects have been identified as non-amateur
radio satellites and have been removed from this week's distribution:
HIBER-2 - CAT ID 43774 (identified by Space-Track, non-amateur)
THEA - CAT ID 43796 (identified by Space-Track, non-amateur)
BRIO - CAT ID 43813 (identified by Space-Track, non-amateur)
SPACEBEE-5 - CAT ID 43817 (identified by Space-Track, non-amateur)
(3) The following amateur satellites have been added to this week's TLE
distribution:
Range A is CAT ID 43772. (per CelesTrak)
Range B is CAT ID 43773. (per CelesTrak)
OrigamiSat 1 is CAT ID 43933. (per Nico Janssen, PA0DLO)
NEXUS is CAT ID 43937. (per Nico Janssen, PA0DLO)
1
0
The identification of the 64 satellites launched by SpaceX SSO-A mission on
December 3, 2018 continues. The spacing between unidentified satellites has
grown enough for positive identification of several additional cubesats.
Here are some changes to the AMSAT-NA TLE distribution for this week:
(1) Per Space-Track MinXSS-2 is now CAT ID 43758. Non-amateur OBJECT 43817
is now listed as SPACEBEE-5. OBJECT 43817 will remain in the TLE
Distribution for now and is listed as OBJECT BM.
(2) The following additional objects have been identified as non-amateur
radio satellites and have been removed from this week's distribution:
VESTA-1 - CAT ID 43781 (identified by Space-Track, non-amateur)
ORBWEAVER 2 - CAT ID 43785 (identified by Space-Track, non-amateur)
ORBWEAVER 1 - CAT ID 43795 (identified by Space-Track, non-amateur)
(3) The following amateur satellite has decayed and has been removed from
the TLE distribution:
TSUKUBA (TO-89, Cat ID 41932) - Launched 5-25-2017 by the University of
Tsukuba in Tsukuba, Ibaraki Japan - TO-89 decayed on 1-3-2019.
1
0
SB KEPS @ AMSAT $ORB19017.N
2Line Orbital Elements 19017.AMSAT
HR AMSAT ORBITAL ELEMENTS FOR AMATEUR SATELLITES IN NASA FORMAT
FROM WA5QGD FORT WORTH,TX January 17, 2019
BID: ORB19017.N
DECODE 2-LINE ELSETS WITH THE FOLLOWING KEY:
1 AAAAAU 00 0 0 BBBBB.BBBBBBBB .CCCCCCCC 00000-0 00000-0 0 DDDZ
2 AAAAA EEE.EEEE FFF.FFFF GGGGGGG HHH.HHHH III.IIII JJ.JJJJJJJJKKKKKZ
KEY: A-CATALOGNUM B-EPOCHTIME C-DECAY D-ELSETNUM E-INCLINATION F-RAAN
G-ECCENTRICITY H-ARGPERIGEE I-MNANOM J-MNMOTION K-ORBITNUM Z-CHECKSUM
TO ALL RADIO AMATEURS BT
AO-07
1 07530U 74089B 19017.45537863 -.00000033 00000-0 76656-4 0 9993
2 07530 101.7218 346.8168 0011911 281.9459 194.0554 12.53636352 21449
UO-11
1 14781U 84021B 19017.15273224 .00000040 00000-0 11021-4 0 9993
2 14781 97.6269 48.9535 0009974 99.6463 260.5878 14.83057634876156
LO-19
1 20442U 90005G 19017.79447843 -.00000021 00000-0 86766-5 0 9992
2 20442 98.6334 320.1841 0010801 234.5245 125.4932 14.32915062514628
HUBBLE
1 20580U 90037B 19017.10520833 .00000362 00000-0 11113-4 0 9996
2 20580 28.4690 140.8583 0002512 285.5507 57.4290 15.09159102377813
MET-2/21
1 22782U 93055A 19017.20445501 .00000008 00000-0 -57155-5 0 9999
2 22782 82.5496 284.0767 0021105 245.4405 272.9343 13.83816231281775
AO-27
1 22825U 93061C 19017.88153191 -.00000002 00000-0 17068-4 0 9991
2 22825 98.8887 3.1714 0009464 82.0674 278.1581 14.30049269320257
IO-26
1 22826U 93061D 19017.91852173 -.00000005 00000-0 15858-4 0 9990
2 22826 98.8827 3.2197 0009945 72.1957 288.0309 14.30381932320452
FO-29
1 24278U 96046B 19017.88968332 -.00000036 00000-0 21959-5 0 9994
2 24278 98.5148 192.0554 0349343 273.8122 82.3149 13.53088587107279
NOAA-15
1 25338U 98030A 19017.56680696 .00000034 00000-0 33263-4 0 9993
2 25338 98.7585 39.0146 0009904 329.8095 30.2513 14.25891642 75576
GO-32
1 25397U 98043D 19017.88256143 -.00000026 00000-0 78356-5 0 9998
2 25397 98.6740 319.9944 0002303 103.5776 256.5659 14.23658702 66275
ISS
1 25544U 98067A 19018.08337883 .00000565 00000-0 15938-4 0 9995
2 25544 51.6423 27.8029 0002459 305.8343 159.7490 15.53767852151930
NO-44
1 26931U 01043C 19016.52741775 -.00000043 00000-0 15364-4 0 9995
2 26931 67.0514 38.9139 0005641 264.5039 95.5419 14.30529459903067
SO-50
1 27607U 02058C 19017.86466261 -.00000046 00000-0 14455-4 0 9998
2 27607 64.5546 153.7751 0081043 285.3363 73.8794 14.75512717864634
CO-55
1 27844U 03031E 19017.89742868 .00000047 00000-0 40639-4 0 9999
2 27844 98.6859 28.3679 0010815 108.7584 251.4768 14.22155297806718
CO-57
1 27848U 03031J 19017.28352567 .00000031 00000-0 34038-4 0 9998
2 27848 98.6940 28.2265 0010628 120.3508 239.8721 14.21753644806483
RS-22
1 27939U 03042A 19017.85350408 .00000141 00000-0 33853-4 0 9992
2 27939 98.0156 156.8522 0012877 182.7105 177.4027 14.66747842818283
NOAA-18
1 28654U 05018A 19017.61365504 .00000078 00000-0 67195-4 0 9994
2 28654 99.1192 62.1377 0013530 243.3875 116.5911 14.12398532704045
CO-58
1 28895U 05043F 19017.39952400 .00000079 00000-0 23864-4 0 9997
2 28895 97.9348 165.5713 0018065 111.5695 248.7435 14.63622022705216
Falconsat-3
1 30776U 07006E 19016.34252706 .00001678 00000-0 49072-4 0 9990
2 30776 35.4366 348.8443 0002694 182.0399 178.0317 15.35466529657099
CO-65
1 32785U 08021C 19016.86356863 .00000160 00000-0 22953-4 0 9990
2 32785 97.5465 23.8245 0014315 53.9849 306.2693 14.88236131580952
AAUSAT2
1 32788U 08021F 19017.88058525 .00000548 00000-0 55681-4 0 9994
2 32788 97.5064 40.2641 0011612 356.9137 3.2010 14.94574789582248
DO-64
1 32789U 08021G 19016.94346882 .00000885 00000-0 63793-4 0 9994
2 32789 097.4865 071.0759 0010778 289.2974 070.7087 15.06592021583863
CO-66
1 32791U 08021J 19017.74157768 .00000149 00000-0 20570-4 0 9998
2 32791 97.5297 30.4378 0014090 30.0660 330.1365 14.90715069581475
RS-30
1 32953U 08025A 19017.85173294 .00000021 00000-0 75656-4 0 9990
2 32953 82.5011 239.1703 0019627 99.5962 260.7332 12.43087310483446
PRISM
1 33493U 09002B 19017.82161429 -.00000008 00000-0 49543-5 0 9993
2 33493 98.1210 293.0232 0015174 329.8364 30.1997 14.96472924542445
NOAA-19
1 33591U 09005A 19017.58840608 .00000060 00000-0 57607-4 0 9997
2 33591 99.1668 5.1358 0014937 85.3125 274.9751 14.12329401512440
TISAT-1
1 36799U 10035E 19016.94403314 .00000395 00000-0 46023-4 0 9994
2 36799 098.1328 164.2533 0011503 222.5079 137.5248 14.90981217461809
JUGNU
1 37839U 11058B 19017.51070696 .00000304 00000-0 20139-4 0 9993
2 37839 19.9597 177.6117 0019003 89.2909 313.9357 14.12639638375719
SRMSAT
1 37841U 11058D 19017.00256899 .00000305 00000-0 22711-4 0 9990
2 37841 19.9707 234.3148 0011828 319.5890 159.0465 14.10622931375103
AO-71
1 37854U 11061E 19017.70886954 .00001492 00000-0 84101-4 0 9995
2 37854 101.7134 197.7384 0161928 157.0611 203.7940 15.06064894394119
HRBE
1 37855U 11061F 19017.71354015 .00001459 00000-0 81094-4 0 9996
2 37855 101.7258 195.1758 0174770 167.0990 193.4779 15.05057256393919
ALMASAT-1
1 38078U 12006B 19017.41237399 .00017220 39227-5 12655-3 0 9993
2 38078 69.4290 338.6738 0195600 139.7608 1.3317 15.52776945373774
HORYU-2
1 38340U 12025D 19017.08049597 .00000130 00000-0 27031-4 0 9999
2 38340 98.3481 50.9367 0010447 247.5867 112.4235 14.75655295358652
RS-40
1 38735U 12041C 19017.45057959 .00000017 00000-0 55103-4 0 9992
2 38735 82.4790 323.0153 0015993 204.8911 155.1398 12.42577120293644
